Wind_Speed
18 17 17 17 18 19 18 19 20 20 22 25 26 27 28 30 31 32 34 36 37 38 38 35 36 40 40
21 20 20 21 21 21 20 21 22 22 24 27 27 27 29 31 31 33 35 37 37 35 34 36 37 38 38
24 23 23 24 23 23 23 24 25 26 26 28 27 27 30 30 30 32 35 35 33 31 35 36 37 37 37
28 27 26 27 26 26 25 26 27 28 28 29 27 29 30 30 29 32 34 32 30 34 34 36 37 36 38
32 30 28 28 28 27 26 28 29 30 29 31 31 32 31 29 31 33 34 27 34 34 37 39 40 39 42
33 33 29 28 29 27 28 29 31 32 32 33 36 35 35 31 31 32 29 35 35 35 39 41 40 40 43
33 33 31 30 29 29 29 29 30 30 35 36 34 37 35 34 32 29 30 34 36 39 39 40 39 42 46
35 33 34 33 31 30 29 29 28 30 31 37 36 39 39 36 30 28 36 37 38 41 41 40 41 44 48
33 35 36 35 32 29 27 25 27 28 32 33 36 44 44 38 28 39 42 39 44 44 43 40 42 46 51
35 37 36 33 31 28 25 22 23 25 27 32 36 39 39 35 43 42 41 47 48 44 39 45 44 50 54
33 32 29 27 25 23 21 21 22 23 25 29 33 35 35 45 46 44 46 51 49 44 46 48 48 49 51
32 31 28 26 23 21 20 20 21 22 23 27 31 31 35 44 47 49 49 48 47 44 50 51 53 52 47
30 30 27 23 22 21 18 19 20 21 23 23 27 30 32 37 44 48 52 52 44 50 52 54 56 53 54
27 27 25 22 20 19 18 20 21 21 22 23 25 29 32 33 37 41 41 45 51 51 53 56 57 51 49
23 23 22 20 18 19 19 19 18 19 23 25 26 28 29 30 32 34 41 45 46 50 53 59 57 50 46
21 21 20 21 20 16 14 15 18 21 23 24 27 30 30 29 30 37 40 44 46 47 50 57 61 51 41
22 22 21 18 13 12 14 15 17 19 21 21 23 26 29 34 36 31 40 41 46 48 49 50 52 51 43
Wind_Direction
257 261 263 267 270 274 280 287 293 304 312 314 316 319 317 316 316 315 314 314 316 316 315 313 312 313 311
255 260 264 265 266 272 278 284 289 298 304 309 313 313 315 316 318 317 315 317 317 316 313 312 312 312 312
257 260 263 264 266 270 276 281 287 293 300 303 308 311 313 316 318 316 315 316 314 312 315 315 312 313 314
254 255 259 263 266 270 276 280 285 291 298 300 305 309 311 316 317 315 315 317 316 319 318 316 316 320 317
254 255 257 263 267 271 277 282 288 292 297 300 305 309 315 317 319 319 320 320 323 324 323 323 324 325 319
255 257 261 264 267 273 279 285 291 294 297 299 311 313 314 318 320 320 318 325 325 325 327 324 324 321 317
252 258 261 263 267 272 277 282 287 294 298 304 308 310 314 316 321 318 321 324 328 330 329 324 326 323 319
251 256 259 262 265 268 274 280 287 294 302 308 313 312 314 317 321 322 328 329 331 333 330 328 331 325 322
249 252 254 258 263 268 271 280 289 297 305 308 317 317 318 321 327 331 331 333 335 336 331 328 331 328 327
244 246 253 258 261 263 270 280 291 305 307 312 318 324 325 320 324 331 330 335 336 332 328 333 339 335 330
243 246 249 254 256 263 270 279 291 301 306 313 317 319 315 315 320 330 334 332 334 334 334 336 341 339 330
240 240 244 248 256 263 268 280 294 301 304 309 311 314 314 315 319 325 331 332 336 334 336 335 339 339 335
236 237 240 246 254 259 271 286 294 297 302 305 306 310 313 315 318 327 331 333 336 336 336 335 337 341 338
234 233 237 240 248 261 279 285 288 294 298 304 307 310 313 316 319 326 332 334 334 337 335 333 337 343 337
225 228 233 238 251 268 275 283 290 298 301 309 313 312 314 321 325 335 335 336 337 335 334 334 337 344 337
218 224 232 245 255 264 272 286 295 301 307 315 318 321 325 328 338 340 338 337 335 336 340 338 334 343 339
218 225 239 247 246 257 273 286 295 305 314 324 330 333 334 334 334 351 338 338 339 338 341 340 333 337 342
Height
1552 1551 1551 1552 1553 1553 1551 1551 1550 1549 1547 1544 1541 1539 1535 1532 1528 1523 1517 1512 1506 1500 1495 1490 1484 1479 1473
1546 1547 1547 1548 1547 1548 1546 1547 1545 1544 1542 1539 1537 1534 1531 1527 1523 1518 1512 1507 1499 1494 1488 1483 1476 1470 1465
1540 1540 1541 1543 1543 1542 1542 1541 1540 1539 1536 1534 1531 1530 1527 1523 1517 1511 1505 1500 1493 1487 1481 1474 1469 1462 1456
1534 1533 1534 1537 1538 1537 1536 1536 1534 1532 1531 1527 1525 1523 1521 1518 1513 1505 1499 1493 1487 1480 1474 1467 1461 1454 1447
1529 1529 1527 1530 1533 1531 1530 1530 1528 1525 1523 1519 1517 1514 1513 1512 1506 1498 1492 1486 1479 1472 1466 1458 1451 1445 1437
1522 1522 1523 1525 1526 1525 1524 1523 1522 1518 1513 1515 1507 1507 1505 1504 1499 1492 1486 1481 1473 1464 1457 1450 1444 1437 1429
1514 1518 1518 1519 1519 1519 1519 1517 1516 1513 1506 1503 1504 1499 1497 1497 1494 1487 1481 1473 1466 1458 1450 1443 1436 1428 1419
1509 1510 1512 1514 1514 1512 1512 1511 1510 1507 1502 1492 1494 1489 1488 1488 1486 1480 1473 1465 1458 1450 1442 1434 1426 1417 1408
1502 1503 1504 1507 1507 1508 1507 1505 1503 1502 1495 1488 1486 1476 1475 1475 1476 1470 1463 1456 1448 1441 1433 1428 1420 1407 1396
1492 1495 1498 1501 1502 1502 1502 1500 1499 1497 1491 1486 1483 1477 1463 1460 1464 1460 1453 1447 1439 1434 1426 1419 1411 1397 1385
1486 1489 1490 1495 1496 1497 1497 1497 1496 1493 1488 1482 1480 1477 1471 1456 1449 1450 1444 1438 1430 1422 1415 1408 1401 1394 1376
1481 1482 1486 1490 1491 1493 1493 1492 1492 1488 1485 1480 1475 1474 1465 1454 1445 1441 1436 1429 1422 1414 1406 1399 1392 1383 1375
1475 1479 1482 1484 1486 1490 1487 1488 1487 1484 1481 1476 1472 1469 1464 1456 1444 1436 1425 1417 1415 1408 1399 1390 1382 1373 1358
1472 1476 1480 1478 1482 1485 1483 1484 1483 1479 1475 1473 1470 1463 1457 1453 1445 1436 1431 1418 1408 1401 1392 1383 1375 1369 1359
1469 1472 1477 1478 1480 1479 1479 1479 1478 1473 1471 1468 1464 1459 1454 1448 1441 1435 1424 1415 1408 1396 1385 1372 1366 1362 1352
1465 1470 1476 1477 1476 1475 1474 1474 1473 1471 1468 1464 1459 1452 1446 1441 1438 1429 1423 1412 1403 1394 1385 1369 1351 1354 1346
1461 1464 1470 1474 1473 1472 1471 1470 1470 1467 1465 1461 1456 1450 1442 1437 1434 1433 1420 1412 1398 1388 1381 1371 1357 1345 1338